Torna al catalogo

STARLINK-36523

AttivoComunicazioniVLEO
NORAD 67460·PAYLOAD·🇺🇸 United States

Lanciato Jan 14, 2026 da Cape Canaveral Space Force Station

Loading…

Prossimi Passaggi (prossime 24 ore)

TLE

AggiornatoSource: CelesTrak SupGP

Epoca: Sep 15, 2026, 02:53 UTC

1 67460C 26008R   26258.12062500 -.00034267  00000+0 -12412-2 0  2581
2 67460  43.0025 215.7174 0001364 272.6061 309.0951 15.27593865    13

Traccia STARLINK-36523 in tempo reale con AllMySat

Download on the App Store